EAT,Max TemperatureF,Mean TemperatureF,Min TemperatureF,Max Dew PointF,MeanDew PointF,Min DewpointF,Max Humidity, Mean Humidity, Min Humidity, Max Sea Level PressureIn, Mean Sea Level PressureIn, Min Sea Level PressureIn, Max VisibilityMiles, Mean VisibilityMiles, Min VisibilityMiles, Max Wind SpeedMPH, Mean Wind SpeedMPH, Max Gust SpeedMPH,PrecipitationIn, CloudCover, Events, WindDirDegrees
2012-11-1,88,80,72,74,72,70,94,73,51,29.93,29.86,29.77,19,8,6,17,4,,0.00,2,,107
2012-11-2,90,84,77,75,74,72,89,75,55,29.95,29.89,29.83,19,8,6,14,5,,1.42,4,Rain,143
2012-11-3,85,80,74,75,73,70,94,81,59,30.01,29.92,29.86,19,8,4,14,7,,0.02,5,Rain,176
2012-11-4,84,78,72,73,72,70,89,77,57,29.98,29.93,29.89,19,8,5,12,7,,0.55,4,Rain,186
2012-11-5,86,80,75,75,72,66,94,79,51,30.01,29.92,29.86,19,7,6,12,6,,0.00,4,Rain,190
2012-11-6,86,80,74,75,73,70,100,79,58,29.98,29.91,29.86,19,8,6,15,6,,0.00,2,,184
2012-11-7,88,81,74,75,74,72,94,80,56,29.98,29.88,29.83,19,8,6,12,5,,0.00,4,,189
2012-11-8,86,80,75,77,75,73,94,83,66,29.91,29.84,29.77,19,8,6,12,5,,0.04,4,Rain,203
2012-11-9,87,82,77,77,76,73,100,83,64,29.92,29.85,29.77,19,8,5,14,6,,0.08,5,Rain,128
2012-11-10,86,79,72,77,73,72,94,80,61,29.98,29.91,29.86,19,8,6,12,6,,0.01,5,Rain-Thunderstorm,155
2012-11-11,86,80,75,75,73,70,94,76,57,30.01,29.92,29.86,19,8,6,9,5,,0.00,2,,142
2012-11-12,86,80,73,75,73,70,89,74,53,29.98,29.90,29.83,19,8,6,10,5,,0.00,2,,154
2012-11-13,86,80,75,75,73,72,94,79,61,29.98,29.89,29.83,19,8,6,10,4,,0.00,2,,130
2012-11-14,88,80,73,75,73,70,94,79,46,29.95,29.86,29.77,19,8,6,12,3,,0.00,2,,55
2012-11-15,88,82,75,77,75,73,94,83,66,29.92,29.86,29.80,19,8,6,12,4,,0.00,3,,193
2012-11-16,87,82,77,77,75,70,94,80,54,29.95,29.89,29.83,19,9,6,14,5,,0.00,2,Rain,189
2012-11-17,87,82,77,77,75,72,100,80,54,29.95,29.89,29.83,19,8,6,10,6,,0.00,3,,147
2012-11-18,87,80,74,77,74,72,94,78,53,29.95,29.88,29.80,19,8,6,12,3,,0.00,2,,138
2012-11-19,87,82,76,77,76,73,100,81,61,29.92,29.86,29.80,19,8,6,12,3,,0.00,3,,105
2012-11-20,88,83,78,77,76,75,94,79,63,29.92,29.84,29.77,19,8,6,15,6,,0.00,5,Rain,97
2012-11-21,87,82,78,77,76,75,94,81,70,29.92,29.84,29.74,19,7,6,12,4,,0.00,3,,92
2012-11-22,88,82,76,77,77,75,94,83,64,29.92,29.84,29.77,19,8,6,18,4,,0.00,4,,101
2012-11-23,89,82,76,77,76,73,100,80,58,29.95,29.86,29.80,19,8,6,15,5,,0.00,3,,95
2012-11-24,87,81,75,77,76,73,94,82,65,29.92,29.85,29.80,19,7,5,13,5,,0.63,4,Rain,117
2012-11-25,88,82,77,77,74,70,94,77,50,29.95,29.87,29.80,19,8,6,12,5,,0.00,2,,174
2012-11-26,88,82,75,77,75,73,94,81,57,29.95,29.88,29.83,19,8,6,16,4,,0.00,3,,190
2012-11-27,86,82,77,77,76,73,94,82,66,29.97,29.89,29.83,19,8,6,15,5,,0.01,5,,183
2012-11-28,88,82,75,77,74,72,100,75,54,29.98,29.90,29.83,19,9,6,12,5,,0.00,2,,162
2012-11-29,87,81,75,77,74,70,94,80,55,29.95,29.90,29.80,19,7,6,10,5,,0.00,3,Rain,185
2012-11-30,88,82,75,77,74,70,94,77,55,29.95,29.88,29.80,19,8,6,12,5,,0.00,2,,158